Waarnemingen

Advertentie
Mijn weer
Strasbourg, Frankrijk (7190): temperatuur & dauwpunt: 09.11.2018 22:00:00 - 15.11.2018 22:00:00 (CET)Strasbourg, Frankrijk (7190): temperatuur 5cm: 09.11.2018 22:00:00 - 15.11.2018 22:00:00 (CET)Strasbourg, Frankrijk (7190): temperatuur -20cm & temperatuur -100cm: 09.11.2018 22:00:00 - 15.11.2018 22:00:00 (CET)Strasbourg, Frankrijk (7190): windsnelheid & windstoten: 09.11.2018 22:00:00 - 15.11.2018 22:00:00 (CET)Strasbourg, Frankrijk (7190): windrichting: 09.11.2018 22:00:00 - 15.11.2018 22:00:00 (CET)Strasbourg, Frankrijk (7190): luchtdruk: 09.11.2018 22:00:00 - 15.11.2018 22:00:00 (CET)Strasbourg, Frankrijk (7190): zicht: 09.11.2018 22:00:00 - 15.11.2018 22:00:00 (CET)Strasbourg, Frankrijk (7190): Zonneschijnduur: 09.11.2018 22:00:00 - 15.11.2018 22:00:00 (CET)Strasbourg, Frankrijk (7190): neerslag: 09.11.2018 22:00:00 - 15.11.2018 22:00:00 (CET)
Datum & Tijd tt [°C] td [°C] tt 5cm [°C] tt -20cm [°C] tt -100cm [°C] ff [km/u] ff [kn] fx [km/u] fx [kn] dd ppp [hPa] vv [km] sd [min] rr [mm]
15.11.2018 22:00:00 4,9 4,6 4,9 9,2 12,9 9 5 12 6 N 1027,9 2,2 0 0,0
15.11.2018 21:00:00 4,9 4,6 4,8 9,3 12,9 7 4 12 7 NNO 1027,8 2,5 0 0,0
15.11.2018 20:00:00 4,8 4,5 4,8 9,3 12,9 8 5 16 9 NO 1027,9 2,6 0 0,0
15.11.2018 19:00:00 4,9 4,6 4,8 9,4 12,9 11 6 16 8 NO 1027,8 2,5 0 0,0
15.11.2018 18:00:00 4,9 4,6 4,9 9,4 13,0 11 6 15 8 NNO 1027,4 1,6 0 0,0
15.11.2018 17:00:00 5,2 4,8 5,2 9,4 13,0 10 6 16 9 NO 1027,3 1,4 0 0,0
15.11.2018 16:00:00 5,8 5,2 5,8 9,4 13,0 3 2 16 9 N 1027,6 4,9 0 0,0
15.11.2018 15:00:00 5,8 5,2 6,0 9,4 13,0 12 7 19 10 NNO 1027,5 9 0 0,0
15.11.2018 14:00:00 6,1 5,4 6,5 9,3 13,0 10 6 14 8 NNO 1027,4 9 0 0,0
15.11.2018 13:00:00 6,2 5,8 6,6 9,3 13,0 3 2 8 4 OZO 1027,6 7 0 0,0
15.11.2018 12:00:00 6,2 5,6 6,5 9,3 13,0 4 2 10 5 ZO 1027,8 12 0 0,0
15.11.2018 11:00:00 6,2 5,6 6,3 9,3 13,0 5 3 11 6 Z 1028,2 11 0 0,0
15.11.2018 10:00:00 6,0 5,6 5,9 9,3 13,0 4 2 10 5 ZZO 1028,1 11 0 0,0
15.11.2018 09:00:00 5,7 5,3 5,6 9,3 13,0 6 4 12 7 ZZO 1028,0 11 0 0,0
15.11.2018 08:00:00 5,5 5,1 5,4 9,4 13,0 3 1 6 3 Z 1028,1 8 0 0,0
15.11.2018 07:00:00 5,5 5,2 5,5 9,4 13,0 4 2 8 4 O 1027,8 5 0 0,0
15.11.2018 06:00:00 5,5 5,2 5,4 9,5 13,0 5 3 11 6 O 1027,9 2,3 0 0,0
15.11.2018 05:00:00 5,4 5,1 5,4 9,5 13,0 6 4 14 8 O 1028,0 2,4 0 0,0
15.11.2018 04:00:00 5,5 5,2 5,3 9,6 13,0 5 3 11 6 O 1028,2 2,0 0 0,0
15.11.2018 03:00:00 5,2 4,9 4,9 9,6 13,0 6 3 10 6 NO 1028,3 2,4 0 0,0
15.11.2018 02:00:00 4,8 4,5 4,9 9,7 13,0 5 3 10 6 ZO 1028,3 0,8 0 0,0
15.11.2018 01:00:00 5,1 4,8 4,9 9,8 13,0 7 4 11 6 ZZW 1028,1 0,5 0 0,0
15.11.2018 00:00:00 4,8 4,5 4,8 9,8 13,1 0 0 10 5 N 1028,3 0,4 0 0,0
14.11.2018 23:00:00 4,8 4,5 5,0 9,9 13,0 6 3 12 7 ZZW 1028,5 0,3 0 0,0
14.11.2018 22:00:00 5,7 5,4 5,8 9,9 13,0 4 2 12 6 ZZO 1028,5 0,3 0 0,0
14.11.2018 21:00:00 6,0 5,7 6,1 9,9 13,1 6 3 11 6 ZW 1028,8 0,3 0 0,0
14.11.2018 20:00:00 6,3 6,0 6,3 9,9 13,1 5 3 10 6 ZW 1028,9 0,2 0 0,0
14.11.2018 19:00:00 6,5 6,2 6,5 9,9 13,0 2 1 8 4 ZO 1028,9 0,2 0 0,0
14.11.2018 18:00:00 6,6 6,3 6,7 10,0 13,1 4 2 11 6 N 1028,8 0,3 0 0,0
14.11.2018 17:00:00 6,6 6,3 6,8 9,9 13,0 4 2 8 5 ZW 1029,0 0,9 0 0,0
14.11.2018 16:00:00 6,6 6,3 7,0 9,8 13,1 4 2 7 4 ZZW 1029,1 1,5 0 0,0
14.11.2018 15:00:00 6,2 5,9 6,8 9,7 13,1 5 3 11 6 Z 1028,9 2,6 0 0,0
14.11.2018 14:00:00 6,1 5,8 7,0 9,6 13,1 4 2 10 5 Z 1029,2 1,2 0 0,0
14.11.2018 13:00:00 5,9 5,6 7,0 9,5 13,1 6 3 10 6 O 1029,5 0,6 0 0,0
14.11.2018 12:00:00 5,7 5,4 7,0 9,4 13,1 6 4 13 7 Z 1029,7 0,3 0 0,0
14.11.2018 11:00:00 5,8 5,5 6,6 9,4 13,1 6 4 11 6 Z 1030,2 0,4 0 0,0
14.11.2018 10:00:00 5,8 5,5 6,1 9,4 13,1 2 1 9 5 OZO 1030,3 0,3 0 0,0
14.11.2018 09:00:00 5,6 5,3 5,1 9,4 13,1 5 3 9 5 ZZW 1030,6 0,9 7 0,0
14.11.2018 08:00:00 4,7 4,4 4,0 9,5 13,1 3 2 5 3 N 1030,9 0,5 0 0,0
14.11.2018 07:00:00 4,3 4,0 3,8 9,5 13,1 5 3 9 5 NO 1031,0 0,1 0 0,0
14.11.2018 06:00:00 4,6 4,3 4,5 9,6 13,1 4 2 8 4 WNW 1031,3 0,1 0 0,0
14.11.2018 05:00:00 4,9 4,6 4,8 9,7 13,1 5 3 7 4 WNW 1031,3 0,2 0 0,0
14.11.2018 04:00:00 4,6 4,3 3,4 9,9 13,1 3 2 5 3 NNW 1031,8 0,1 0 0,0
14.11.2018 03:00:00 3,3 3,0 0,3 10,1 13,1 5 3 8 5 NW 1032,0 0,2 0 0,0
14.11.2018 02:00:00 1,7 1,3 -0,2 10,3 13,1 7 4 8 5 OZO 1032,2 0,3 0 0,0
14.11.2018 01:00:00 2,9 2,5 0,4 10,6 13,1 3 1 7 4 WZW 1032,2 0,4 0 0,0
14.11.2018 00:00:00 3,1 2,7 0,9 10,8 13,0 0 0 7 4 N 1032,5 0,1 0 0,0
13.11.2018 23:00:00 4,1 3,7 1,3 11,0 13,1 4 2 7 4 ZW 1032,4 2,5 0 0,0
13.11.2018 22:00:00 4,7 4,1 2,4 11,3 13,1 5 3 9 5 Z 1032,5 10 0 0,0
13.11.2018 21:00:00 5,4 4,7 3,2 11,5 13,1 5 3 13 7 ZW 1032,2 24 0 0,0
13.11.2018 20:00:00 6,1 4,9 3,7 11,6 13,0 5 3 10 5 Z 1032,1 19 0 0,0
13.11.2018 19:00:00 8,0 7,1 5,4 11,8 13,1 6 4 11 6 WZW 1031,6 20 0 0,0
13.11.2018 18:00:00 9,1 7,4 6,4 11,9 13,1 4 2 8 5 WZW 1031,3 41 0 0,0
13.11.2018 17:00:00 11,2 8,6 8,8 11,8 13,0 3 1 14 8 WZW 1030,6 60 11 0,0
13.11.2018 16:00:00 12,1 9,1 11,6 11,7 13,0 11 6 21 11 ZZW 1029,9 60 23 0,0
13.11.2018 15:00:00 14,1 10,3 13,8 11,6 13,0 11 6 21 12 Z 1029,4 57 46 0,0
13.11.2018 14:00:00 14,5 11,1 13,5 11,5 13,1 11 6 18 10 ZZW 1029,2 58 10 0,0
13.11.2018 13:00:00 12,8 10,9 12,2 11,5 13,1 11 6 23 13 WZW 1029,2 58 0 0,0
13.11.2018 12:00:00 12,0 10,7 11,3 11,4 13,1 15 8 27 14 ZZW 1029,0 59 0 0,0
13.11.2018 11:00:00 11,5 10,2 11,3 11,4 13,0 13 7 22 12 ZZW 1029,0 43 0 0,0
13.11.2018 10:00:00 11,3 10,2 10,6 11,5 13,1 11 6 27 15 Z 1027,7 60 0 0,0
13.11.2018 09:00:00 11,3 10,0 10,2 11,5 13,0 16 9 32 17 Z 1027,1 56 0 0,4
13.11.2018 08:00:00 10,7 9,9 10,1 11,5 13,1 10 5 14 8 Z 1026,6 13 0 1,6
13.11.2018 07:00:00 11,3 9,9 10,4 11,5 13,1 5 3 14 8 ZW 1025,8 6 0 1,2
13.11.2018 06:00:00 11,9 9,8 10,7 11,5 13,1 8 4 15 8 W 1024,3 60 0 0,0
13.11.2018 05:00:00 11,9 10,8 11,2 11,5 13,0 5 3 11 6 NNW 1023,7 58 0 0,0
13.11.2018 04:00:00 12,1 11,5 11,5 11,5 13,1 3 2 10 5 WZW 1023,0 11 0 0,8
13.11.2018 03:00:00 12,8 11,9 11,9 11,5 13,0 3 2 18 10 NNO 1022,3 17 0 0,4
13.11.2018 02:00:00 13,6 11,6 12,5 11,5 13,0 14 8 24 13 N 1021,6 6 0 0,4
13.11.2018 01:00:00 14,3 11,4 12,0 11,5 13,1 8 5 19 10 ONO 1020,9 43 0 0,0
13.11.2018 00:00:00 12,7 10,4 11,8 11,5 13,1 9 5 28 15 ZW 1020,2 44 0 0,0
12.11.2018 23:00:00 13,8 10,6 11,9 11,5 13,0 3 1 14 7 OZO 1019,9 48 0 0,0
12.11.2018 22:00:00 12,4 9,8 10,1 11,6 13,0 3 2 9 5 NW 1019,8 49 0 0,0
12.11.2018 21:00:00 11,8 8,6 8,8 11,7 13,0 4 2 15 8 W 1019,7 47 0 0,0
12.11.2018 20:00:00 11,8 9,0 10,2 11,8 13,0 3 2 6 3 NNW 1019,3 42 0 0,0
12.11.2018 19:00:00 13,8 9,0 10,7 11,8 13,0 3 1 9 5 OZO 1018,7 59 0 0,0
12.11.2018 18:00:00 15,0 9,8 11,5 11,8 13,1 4 2 13 7 O 1018,1 60 0 0,0
12.11.2018 17:00:00 16,3 9,9 13,1 11,6 13,1 4 2 14 8 WZW 1017,4 60 14 0,0
12.11.2018 16:00:00 18,4 10,7 17,5 11,4 13,1 9 5 31 17 ZW 1016,8 39 49 0,0
12.11.2018 15:00:00 17,7 10,8 17,5 11,2 13,1 18 10 28 15 Z 1016,5 43 4 0,0
12.11.2018 14:00:00 17,5 9,9 17,7 11,0 13,1 16 9 26 14 Z 1016,6 51 1 0,0
12.11.2018 13:00:00 16,8 9,9 17,2 10,7 13,1 4 2 22 12 ZW 1016,7 53 1 0,0
12.11.2018 12:00:00 16,3 10,2 17,2 10,6 13,0 11 6 23 13 Z 1016,6 36 26 0,0
12.11.2018 11:00:00 16,4 10,0 16,5 10,5 13,1 4 2 11 6 Z 1016,6 42 60 0,0
12.11.2018 10:00:00 13,6 9,4 15,4 10,5 13,1 8 4 13 7 ZZW 1016,5 28 60 0,0
12.11.2018 09:00:00 11,7 9,1 9,7 10,6 13,1 6 4 16 9 ZZO 1016,2 21 58 0,0
12.11.2018 08:00:00 8,3 7,1 7,4 10,7 13,0 8 5 16 9 ZZO 1015,9 10 1 0,0
12.11.2018 07:00:00 8,8 7,9 7,6 10,8 13,0 5 3 13 7 WZW 1015,1 14 0 0,0
12.11.2018 06:00:00 9,4 8,5 7,0 10,9 13,1 6 4 18 10 ZZW 1014,8 9 0 0,0
12.11.2018 05:00:00 9,8 8,4 8,0 11,0 13,0 10 5 19 11 ZZO 1014,8 16 0 0,0
12.11.2018 04:00:00 10,6 9,2 8,5 11,1 13,0 13 7 19 10 ZZO 1014,9 19 0 0,0
12.11.2018 03:00:00 10,7 9,5 9,0 11,2 13,0 11 6 19 10 Z 1015,4 29 0 0,0
12.11.2018 02:00:00 10,1 9,2 8,0 11,3 13,1 5 3 9 5 ZZO 1015,5 22 0 0,0
12.11.2018 01:00:00 10,2 9,3 7,6 11,4 13,1 4 2 12 6 ONO 1015,7 20 0 0,0
12.11.2018 00:00:00 9,8 8,6 8,0 11,5 13,0 7 4 14 8 ZZO 1015,8 20 0 0,0
11.11.2018 23:00:00 11,7 9,4 7,7 11,6 13,0 10 5 19 11 Z 1015,5 47 0 0,0
11.11.2018 22:00:00 11,3 9,9 9,5 11,8 13,1 2 1 10 5 N 1015,3 22 0 0,0
11.11.2018 21:00:00 10,7 9,8 7,7 11,9 13,1 7 4 11 6 W 1015,0 25 0 0,0
11.11.2018 20:00:00 10,7 9,3 7,7 12,0 13,1 5 3 11 6 ZZO 1014,3 26 0 0,0
11.11.2018 19:00:00 11,2 9,6 8,2 12,1 13,1 5 3 11 6 OZO 1013,7 53 0 0,0
11.11.2018 18:00:00 12,2 9,8 9,9 12,0 13,1 3 1 11 6 WZW 1013,6 60 0 0,0
11.11.2018 17:00:00 13,7 9,9 11,8 11,9 13,1 7 4 21 11 Z 1012,6 60 2 0,0
11.11.2018 16:00:00 16,1 10,4 15,6 11,7 13,1 13 7 26 14 Z 1012,0 57 46 0,0
11.11.2018 15:00:00 16,9 11,0 19,7 11,4 13,1 15 8 35 19 Z 1012,5 43 60 0,0
11.11.2018 14:00:00 16,6 11,1 19,8 11,2 13,1 18 10 29 15 Z 1012,8 44 60 0,0
11.11.2018 13:00:00 16,1 10,8 18,6 11,0 13,1 16 9 31 17 Z 1013,0 50 60 0,0
11.11.2018 12:00:00 15,2 10,6 15,7 10,8 13,1 23 12 34 19 Z 1013,0 49 57 0,0
11.11.2018 11:00:00 13,7 10,5 12,5 10,8 13,1 19 11 35 19 Z 1013,3 43 48 0,0
11.11.2018 10:00:00 12,4 9,8 11,8 10,8 13,1 22 12 36 19 Z 1013,4 18 52 0,0
11.11.2018 09:00:00 12,1 10,5 9,6 10,9 13,1 9 5 27 15 Z 1012,9 27 51 0,0
11.11.2018 08:00:00 10,3 9,1 8,9 10,9 13,1 11 6 21 11 ZZO 1011,9 41 0 0,0
11.11.2018 07:00:00 10,8 10,0 10,1 10,9 13,1 7 4 37 20 ZZO 1011,5 12 0 1,8
11.11.2018 06:00:00 11,5 10,6 10,8 10,9 13,1 13 7 23 12 ZZW 1009,9 12 0 0,6
11.11.2018 05:00:00 11,5 10,4 10,7 10,9 13,1 11 6 19 10 ZZW 1009,7 19 0 0,0
11.11.2018 04:00:00 11,4 10,3 10,8 10,9 13,1 11 6 23 12 ZZW 1010,0 14 0 0,0
11.11.2018 03:00:00 11,0 10,4 10,1 11,0 13,1 13 7 20 11 ZZW 1010,2 9 0 0,0
11.11.2018 02:00:00 10,9 10,3 10,4 11,0 13,1 10 6 29 15 ZZW 1010,0 8 0 0,0
11.11.2018 01:00:00 10,9 10,3 10,1 11,0 13,1 14 8 28 15 Z 1009,6 8 0 0,0
11.11.2018 00:00:00 11,1 10,5 10,5 11,0 13,1 12 7 22 12 Z 1009,6 7 0 0,4
10.11.2018 23:00:00 11,3 10,4 10,6 11,0 13,1 13 7 26 14 ZZW 1009,4 6 0 0,2
10.11.2018 22:00:00 12,1 10,0 11,1 11,0 13,1 18 10 30 16 Z 1009,1 18 0 0,0
10.11.2018 21:00:00 12,0 10,9 10,8 10,9 13,1 11 6 21 11 Z 1008,9 16 0 0,0
10.11.2018 20:00:00 12,3 11,2 10,4 10,9 13,1 13 7 19 10 Z 1008,7 11 0 0,2
10.11.2018 19:00:00 11,2 10,6 10,6 10,9 13,1 6 3 11 6 WZW 1008,5 3,5 0 0,4
10.11.2018 18:00:00 12,2 10,8 10,9 10,9 13,1 8 4 18 10 ZW 1008,3 5 0 0,4
10.11.2018 17:00:00 11,5 10,4 10,7 10,8 13,1 7 4 19 11 ZO 1008,5 4,6 0 1,0
10.11.2018 16:00:00 11,9 10,3 11,1 10,7 13,1 5 3 9 5 OZO 1008,5 7 0 0,2
10.11.2018 15:00:00 12,4 8,9 12,5 10,5 13,1 4 2 17 9 O 1008,6 14 0 0,0
10.11.2018 14:00:00 12,5 8,4 12,8 10,4 13,1 6 3 20 11 ZZO 1008,6 16 0 0,0
10.11.2018 13:00:00 11,7 8,7 10,5 10,3 13,1 6 3 15 8 ZZO 1008,8 13 0 0,0
10.11.2018 12:00:00 11,1 8,3 10,5 10,2 13,1 6 3 16 9 ZZO 1009,3 8 0 0,2
10.11.2018 11:00:00 11,4 8,3 10,7 10,2 13,1 6 3 18 10 ZZO 1009,5 13 0 0,0
10.11.2018 10:00:00 10,4 8,2 9,9 10,2 13,1 10 5 19 11 Z 1009,7 9 0 0,0
10.11.2018 09:00:00 9,6 8,0 8,6 10,1 13,1 10 6 17 9 Z 1009,7 7 0 0,0
10.11.2018 08:00:00 8,9 7,7 7,8 10,2 13,1 4 2 12 6 Z 1009,8 5 0 0,0
10.11.2018 07:00:00 8,7 7,6 7,3 10,3 13,1 2 1 15 8 Z 1009,5 6 0 0,0
10.11.2018 06:00:00 7,8 7,0 7,1 10,3 13,1 2 1 12 7 OZO 1009,4 4,8 0 0,0
10.11.2018 05:00:00 7,7 6,9 7,1 10,4 13,1 5 3 18 10 Z 1009,8 6 0 0,0
10.11.2018 04:00:00 7,5 6,9 6,7 10,5 13,1 7 4 20 11 ZZO 1010,3 6 0 0,0
10.11.2018 03:00:00 7,0 6,7 3,0 10,7 13,1 8 4 13 7 Z 1010,9 6 0 0,0
10.11.2018 02:00:00 6,0 5,6 4,4 10,9 13,1 8 4 16 8 ZZW 1011,3 4,2 0 0,0
10.11.2018 01:00:00 6,6 6,2 2,3 11,1 13,1 10 5 21 11 Z 1011,6 4,4 0 0,0
10.11.2018 00:00:00 5,2 4,6 2,8 11,3 13,1 5 3 8 4 Z 1012,5 2,8 0 0,0
09.11.2018 23:00:00 6,3 5,7 4,1 11,5 13,1 5 3 7 4 ZW 1012,7 1,0 0 0,0
09.11.2018 22:00:00 6,5 5,9 4,6 11,7 13,1 6 3 12 7 ZW 1013,5 2,9 0 0,0

tt = temperatuur
td = dauwpunt
tt 5cm = temperatuur 5cm
tt -20cm = temperatuur -20cm
tt -100cm = temperatuur -100cm
ff = windsnelheid
fx = windstoten
dd = windrichting
ppp = luchtdruk
vv = zicht
sd = Zonneschijnduur
rr = neerslag

Weerstations in de omgeving